Location: Unspecified
(48.8582°N, 2.2947°E)
Time: 08:41:00
(UTC+02:00)

ISS - Visible Passes

Search period start: 16 July 2018 00:00
Search period end: 26 July 2018 00:00
Orbit: 402 x 408 km, 51.6° (Epoch: 16 July)

Date Brightness Start Highest point End Pass type
(mag) Time Alt. Az. Time Alt. Az. Time Alt. Az.
16 Jul -3.7 02:31:56 49° W 02:32:41 74° NNW 02:35:59 10° ENE visible
16 Jul -2.9 04:06:11 10° WNW 04:09:26 50° N 04:12:40 10° E visible
17 Jul -3.5 01:41:12 56° E 01:41:12 56° E 01:43:54 10° ENE visible
17 Jul -2.9 03:14:03 10° W 03:17:15 50° N 03:20:30 10° ENE visible
17 Jul -3.6 04:50:42 10° WNW 04:54:01 75° NNE 04:57:18 10° ESE visible
18 Jul -2.3 00:50:13 25° E 00:50:13 25° E 00:51:48 10° ENE visible
18 Jul -3.1 02:22:48 17° W 02:25:05 55° N 02:28:22 10° ENE visible
18 Jul -3.2 03:58:36 10° WNW 04:01:53 59° NNE 04:05:08 10° E visible
18 Jul -2.2 23:58:13 21° E 23:58:13 21° E 23:59:36 10° E visible
19 Jul -3.5 01:30:36 17° W 01:32:57 67° NNW 01:36:13 10° ENE visible
19 Jul -3.0 03:06:28 10° WNW 03:09:42 51° N 03:12:56 10° E visible
19 Jul -3.9 04:43:01 10° WNW 04:46:18 69° SSW 04:49:35 10° ESE visible
19 Jul -2.6 23:02:03 10° SSW 23:04:38 21° SE 23:07:13 10° E visible
20 Jul -3.9 00:37:31 10° WSW 00:40:48 88° NNW 00:44:07 10° ENE visible
20 Jul -2.9 02:14:17 10° WNW 02:17:30 49° N 02:20:44 10° ENE visible
20 Jul -3.8 03:50:54 10° WNW 03:54:12 84° NNE 03:57:31 10° ESE visible
20 Jul -3.9 23:45:27 10° SW 23:48:42 63° SSE 23:51:59 10° ENE visible
21 Jul -3.0 01:22:03 10° W 01:25:17 52° N 01:28:32 10° ENE visible
21 Jul -3.4 02:58:46 10° WNW 03:02:03 64° NNE 03:05:20 10° E visible
21 Jul -3.3 04:35:22 10° WNW 04:38:27 37° SSW 04:41:32 10° SE visible
21 Jul -3.4 22:53:33 10° SW 22:56:39 40° SSE 22:59:46 10° ENE visible
22 Jul -3.3 00:29:50 10° W 00:33:05 61° NNW 00:36:22 10° ENE visible
22 Jul -3.1 02:06:36 10° WNW 02:09:51 53° N 02:13:06 10° E visible
22 Jul -3.9 03:43:09 10° WNW 03:46:24 59° SSW 03:49:39 10° SE visible
22 Jul -1.9 05:20:58 10° WSW 05:22:20 12° SW 05:23:42 10° SSW visible
22 Jul -3.7 23:37:37 10° WSW 23:40:54 79° NNW 23:44:12 10° ENE visible
23 Jul -2.9 01:14:24 10° WNW 01:17:37 49° N 01:20:47 10° ENE visible
23 Jul -3.1 02:50:59 10° WNW 02:53:18 42° WNW 02:53:18 42° WNW visible
23 Jul -3.9 22:45:29 10° WSW 22:48:45 74° SSE 22:52:02 10° ENE visible
24 Jul -2.9 00:22:09 10° W 00:25:22 50° N 00:28:35 10° ENE visible
24 Jul -3.4 01:58:49 10° WNW 02:01:41 59° NW 02:01:41 59° NW visible
24 Jul -3.2 23:29:53 10° W 23:33:07 57° N 23:36:23 10° ENE visible
25 Jul -3.2 01:06:38 10° WNW 01:09:53 56° N 01:10:41 42° ENE visible
25 Jul -1.0 02:43:11 10° WNW 02:43:17 11° WNW 02:43:17 11° WNW visible
25 Jul -3.5 22:37:37 10° WSW 22:40:53 71° NNW 22:44:10 10° ENE visible
